DELTA 1 DEB, 29183

Orbit data source: Space-Track

DELTA 1 DEB, 29183 is space debris in LEO originally from a launch on Thu, 11 Jan 1968 UTC launched from the Air Force Western Test Range (AFWTR). Debris objects in space refer to the collection of defunct objects orbiting the Earth. Examples of debris include non-operational satellites, rocket bodies, and fragments generated from explosions, collisions, or faulty payload assembly.

Loading next visibility...
Identifier
29183, 1968-002G
Orbit
LEO
Country
Flag of USUS
Related business
Manufacturer
Unknown
Mission
Spacecraft
Bus & Motor
Unknown
Mass
Unknown
Launch date (UTC)
1968-01-11 (58 years ago)
Launch vehicle
Unknown
Launch site
Air Force Western Test Range (AFWTR)
Object type
Payload
Rocket body
Debris
Shape & HBR
Unknown
Radar Cross Section
Small (<0.1 m²)

Expand to show TLE details & history
Last TLE update: 4 days ago

TLE from 4 days ago
0 DELTA 1 DEB
1 29183U 68002G   25256.31164681  .00001240  00000-0  21740-2 0  9992
2 29183 105.7928 288.2101 0233857  79.0292 352.9481 13.37173788 54500
Epoch: 2025-09-13T07:28Z
TLE epoch observation values (Epoch: 2025-09-13T07:28:46.284Z)
Latitude
66.05494°
Longitude
144.1567°
Altitude
956.906 km
Speed
7.465 km/s
True Right ascension
16h 35m 35s
True Declination
65° 55' 50"
Sunlit
Object was in daylight at epoch
Visualization orbit readout
Latitude
Unknown
Longitude
Unknown
Altitude
Unknown
Speed
Unknown
Apparent Right ascension
Unknown
Apparent Declination
Unknown
Sunlit
N/A
Visualization observer readout
Local Sidereal Time
21:23:59
Azimuth
Unknown
Elevation
Unknown
Doppler factor
Unknown
Orbital elements
Apogee altitude
1,292.836 km
Perigee altitude
942.253 km
Semi-major axis
7,495.682 km
Eccentricity
0.02339
Inclination
105.7928°
RAAN
288.2101°
Arg. of periapsis
79.0292°
True anomaly
352.60929°
Mean anomaly
352.9481°
Eccentric anomaly
352.77969°
Mean motion
3.34446 °/min
Orbital period
107.64 mins
BSTAR
0.002174
Loading maneuver chart data...
Computing Atmospheric mass density...
Loading historical data...
Loading historical data...
Loading historical data...
Loading historical data...
Loading historical data...
Loading historical data...
Loading historical data...

Documentation

Showing up to 5 results
|